Tracking 18032 objects as of 26-March-2017
HD Live streaming from Space Station
objects crossing your sky now

NAVSTAR 33 (USA 92)

Track NAVSTAR 33 (USA 92) now!
NAVSTAR 33 (USA 92) is classified as:


NORAD ID: 22700
Int'l Code: 1993-042A
Perigee: -6,371.0 km
Apogee: -6,371.0 km
Inclination: 55.6 °
Period: 0.0 minutes
Semi major axis: 0 km
RCS: 3.4011 m2 (large)
Launch date: June 26, 1993
Source: United States (US)
Launch site: AIR FORCE EASTERN TEST RANGE (AFETR)
PRN:
Your satellite tracking list
Your tracking list is empty





NASA's NSSDC Master Catalog

Two Line Element Set (TLE):
1 22700U 93042A   17084.64696170 +.00000026 +00000-0 +00000-0 0  9996
2 22700 055.6400 286.9120 0007805 319.0598 001.0384 01.89431485173275
Source of the keplerian elements: AFSPC